Temp
-2 -2 -2 -2 -2 -2 -1 -1 -1 -1 -1 -2 -2 -1 -1 -1 -1 -1 -0 1 1 1
-2 -2 -2 -2 -2 -2 -1 -1 -1 -0 -1 -2 -2 -2 -1 -1 -1 -1 -1 -1 -0 0
-2 -2 -2 -2 -1 -1 -1 -1 -1 -2 -2 -2 -2 -2 -2 -1 -1 -1 -1 -1 -1 -0
-2 -2 -2 -1 -1 -1 -1 -1 -2 -2 -2 -2 -2 -2 -2 -1 -2 -2 -2 -1 -1 -1
-2 -2 -2 -2 -1 -1 -1 -1 -2 -1 -2 -2 -2 -2 -2 -2 -2 -2 -2 -2 -2 -2
-3 -3 -2 -2 -2 -1 -1 -1 -1 -1 -2 -2 -2 -2 -2 -2 -2 -2 -2 -2 -2 -2
-3 -3 -3 -3 -2 -2 -2 -1 -1 -1 -1 -1 -1 -1 -2 -2 -2 -2 -2 -2 -2 -2
-2 -3 -3 -3 -2 -2 -2 -2 -2 -2 -1 -1 -1 -1 -1 -1 -2 -2 -2 -2 -2 -2
-3 -3 -3 -3 -3 -3 -3 -3 -3 -3 -3 -2 -1 0 -0 -0 -0 -1 -2 -2 -2 -2
-3 -3 -3 -3 -3 -3 -3 -4 -3 -3 -3 -3 -3 -1 0 0 0 -0 -1 -2 -2 -1
-3 -3 -3 -3 -2 -2 -3 -4 -3 -3 -3 -3 -3 -3 -2 -0 -0 -1 -1 -1 -2 -1
-3 -3 -3 -3 -3 -3 -3 -3 -3 -4 -3 -3 -3 -3 -3 -3 -3 -3 -3 -3 -2 -2
-2 -3 -3 -3 -3 -3 -3 -3 -3 -3 -3 -3 -3 -3 -4 -3 -3 -3 -4 -4 -3 -3
-1 -2 -3 -3 -2 -3 -4 -4 -4 -3 -4 -4 -4 -3 -3 -4 -4 -4 -4 -4 -4 -4
Height
1436 1425 1416 1407 1397 1389 1382 1376 1369 1364 1364 1366 1367 1368 1371 1375 1378 1383 1386 1389 1393 1396
1433 1423 1413 1402 1393 1385 1379 1373 1365 1360 1362 1362 1363 1365 1367 1370 1373 1376 1380 1384 1387 1390
1434 1424 1413 1401 1391 1384 1378 1373 1367 1363 1362 1361 1362 1362 1365 1366 1369 1371 1374 1377 1381 1384
1434 1425 1414 1403 1395 1387 1380 1375 1370 1366 1363 1362 1362 1362 1362 1364 1366 1368 1369 1372 1375 1378
1436 1426 1416 1406 1397 1389 1382 1378 1373 1369 1367 1365 1363 1362 1362 1362 1363 1364 1366 1369 1370 1372
1437 1428 1419 1410 1401 1393 1386 1380 1376 1372 1369 1366 1364 1362 1361 1361 1361 1362 1363 1365 1367 1369
1440 1432 1424 1415 1406 1397 1390 1384 1378 1375 1371 1368 1365 1362 1360 1360 1359 1360 1361 1362 1363 1365
1445 1437 1429 1421 1412 1404 1395 1389 1383 1376 1370 1365 1362 1359 1359 1358 1358 1358 1358 1359 1361 1362
1449 1441 1433 1426 1419 1411 1402 1394 1387 1380 1373 1364 1356 1353 1355 1356 1354 1355 1356 1357 1358 1359
1453 1445 1438 1432 1424 1417 1409 1402 1392 1386 1378 1369 1360 1354 1352 1353 1353 1352 1354 1357 1358 1359
1457 1450 1444 1437 1430 1423 1416 1408 1401 1393 1386 1379 1370 1362 1354 1351 1351 1354 1356 1357 1357 1357
1463 1456 1450 1442 1435 1429 1423 1416 1409 1402 1395 1389 1383 1375 1367 1361 1360 1359 1360 1359 1358 1356
1470 1463 1456 1450 1442 1437 1431 1425 1418 1411 1404 1399 1395 1391 1384 1377 1373 1370 1369 1368 1366 1364
1476 1470 1464 1457 1450 1444 1438 1432 1425 1419 1414 1408 1404 1401 1397 1391 1385 1382 1380 1377 1376 1375
Wind_Speed
43 41 37 35 32 30 28 29 30 25 21 16 19 13 21 28 28 24 25 28 32 34
45 47 46 40 34 27 23 27 24 11 12 9 12 16 12 20 25 26 23 25 26 24
45 46 40 38 36 27 23 22 20 13 7 5 5 7 16 13 21 23 25 27 29 27
43 44 38 33 30 29 27 21 18 13 7 4 4 6 10 8 18 19 21 23 23 28
39 42 39 35 30 25 27 23 18 14 10 8 6 5 7 9 12 10 18 16 15 18
38 42 39 36 32 27 22 20 17 14 11 10 8 5 4 6 8 12 13 14 18 19
38 36 39 36 34 33 31 27 19 17 14 11 10 10 9 7 11 15 10 13 14 14
36 32 33 37 38 36 38 40 37 26 15 12 15 12 7 5 6 7 12 14 13 16
33 33 31 33 38 39 41 41 42 40 39 35 18 9 11 13 17 5 8 7 8 13
31 33 32 33 35 38 41 42 44 44 46 42 33 16 4 10 13 15 3 5 4 5
31 30 30 29 32 36 37 40 41 43 46 46 40 34 24 8 6 9 3 1 6 9
32 31 29 30 30 31 35 37 38 40 39 45 42 41 41 42 41 38 33 26 15 9
30 31 31 31 32 33 32 31 33 36 38 41 39 38 35 39 40 40 38 34 31 26
27 30 32 31 29 31 35 37 38 35 31 33 34 34 32 33 36 33 33 32 30 28
Wind_Direction
353 354 348 344 340 331 332 337 328 310 301 268 248 238 237 240 240 240 245 241 242 245
2 359 356 354 354 345 347 350 343 357 308 275 261 255 240 241 238 236 236 240 243 243
2 1 -0 8 14 7 359 2 4 2 330 278 263 272 235 232 230 233 239 233 233 234
8 5 6 11 19 22 11 7 9 7 8 351 296 257 236 236 240 244 234 242 240 237
10 5 10 15 19 22 25 10 11 12 10 0 336 292 270 249 237 244 245 247 256 239
15 11 14 20 22 21 23 23 11 11 4 354 354 340 304 265 248 239 241 242 242 240
17 18 21 25 32 35 38 32 24 11 356 344 329 311 304 274 258 250 241 248 244 242
18 21 27 30 36 39 43 40 31 22 2 355 346 279 276 288 269 247 244 237 239 235
21 23 27 33 36 42 43 43 37 32 27 20 15 346 244 264 259 230 225 226 253 245
25 27 33 40 41 42 42 43 45 35 35 31 27 14 319 251 270 259 164 211 253 218
27 30 33 42 43 44 42 41 38 42 40 38 40 50 61 89 160 160 184 270 211 226
32 34 36 41 45 46 45 45 43 44 46 45 41 50 64 72 75 74 70 67 65 61
38 42 44 46 49 52 50 46 44 46 46 48 48 45 53 68 72 74 72 67 64 60
39 48 48 46 46 52 54 49 44 44 45 50 47 47 48 55 65 69 68 67 69 68